DG2GBZ-3 Weather Reports


time (UTC)temp
C
wind
direction
speed
KPH
gust
KPH
rain 1hr
cm
rain 24hr
cm
rain mn
cm
humidity
%
barometer
mb
20260502123757 33 0.0 0.0 0.00 0.00 0.00 1022.4
20260502122757 32 0.0 0.0 0.00 0.00 0.00 1022.5
20260502121756 32 0.0 0.0 0.00 0.00 0.00 1022.7
20260502120755 34 0.0 0.0 0.00 0.00 0.00 1022.8
20260502115755 31 0.0 0.0 0.00 0.00 0.00 1022.9
20260502114755 31 0.0 0.0 0.00 0.00 0.00 1023.1
20260502113754 34 0.0 0.0 0.00 0.00 0.00 1023.1
20260502112754 31 0.0 0.0 0.00 0.00 0.00 1023.4
20260502111754 30 0.0 0.0 0.00 0.00 0.00 1023.4
20260502110753 31 0.0 0.0 0.00 0.00 0.00 1023.6
20260502105753 31 0.0 0.0 0.00 0.00 0.00 1023.7
20260502104753 34 0.0 0.0 0.00 0.00 0.00 1023.8
20260502103752 30 0.0 0.0 0.00 0.00 0.00 1023.9
20260502102752 35 0.0 0.0 0.00 0.00 0.00 1024.0
20260502101752 30 0.0 0.0 0.00 0.00 0.00 1024.2
20260502100752 28 0.0 0.0 0.00 0.00 0.00 1024.3
20260502090750 32 0.0 0.0 0.00 0.00 0.00 1024.9
20260502070746 15 0.0 0.0 0.00 0.00 0.00 1025.5
20260502065746 13 0.0 0.0 0.00 0.00 0.00 1025.6
20260502064746 11 0.0 0.0 0.00 0.00 0.00 1025.7
20260502063745 9 0.0 0.0 0.00 0.00 0.00 1025.7
20260502062745 9 0.0 0.0 0.00 0.00 0.00 1025.7
20260502061745 8 0.0 0.0 0.00 0.00 0.00 1025.7
20260502060744 7 0.0 0.0 0.00 0.00 0.00 1025.7
20260502055744 7 0.0 0.0 0.00 0.00 0.00 1025.7
20260502054744 7 0.0 0.0 0.00 0.00 0.00 1025.7
20260502053743 7 0.0 0.0 0.00 0.00 0.00 1025.7
20260502052743 6 0.0 0.0 0.00 0.00 0.00 1025.8
20260502051743 4 0.0 0.0 0.00 0.00 0.00 1025.9
20260502050742 5 0.0 0.0 0.00 0.00 0.00 1025.8
20260502045743 5 0.0 0.0 0.00 0.00 0.00 1025.7
20260502044741 5 0.0 0.0 0.00 0.00 0.00 1025.8
20260502043741 4 0.0 0.0 0.00 0.00 0.00 1025.8
20260502042741 4 0.0 0.0 0.00 0.00 0.00 1025.8
20260502041740 4 0.0 0.0 0.00 0.00 0.00 1025.8
20260502040740 5 0.0 0.0 0.00 0.00 0.00 1025.9
20260502035739 4 0.0 0.0 0.00 0.00 0.00 1025.8
20260502034739 4 0.0 0.0 0.00 0.00 0.00 1025.7
20260502033738 5 0.0 0.0 0.00 0.00 0.00 1025.8
20260502032739 5 0.0 0.0 0.00 0.00 0.00 1025.8
20260502031737 5 0.0 0.0 0.00 0.00 0.00 1025.9
20260502030737 5 0.0 0.0 0.00 0.00 0.00 1025.9
20260502025736 5 0.0 0.0 0.00 0.00 0.00 1025.9
20260502024736 5 0.0 0.0 0.00 0.00 0.00 1026.0
20260502023736 6 0.0 0.0 0.00 0.00 0.00 1026.0
20260502022735 5 0.0 0.0 0.00 0.00 0.00 1026.0
20260502021735 5 0.0 0.0 0.00 0.00 0.00 1026.1
20260502020734 6 0.0 0.0 0.00 0.00 0.00 1026.1
20260502011732 7 0.0 0.0 0.00 0.00 0.00 1026.2
20260502010731 8 0.0 0.0 0.00 0.00 0.00 1026.3
20260502005731 7 0.0 0.0 0.00 0.00 0.00 1026.4
20260502004730 8 0.0 0.0 0.00 0.00 0.00 1026.4
20260502003730 8 0.0 0.0 0.00 0.00 0.00 1026.4
20260502002729 8 0.0 0.0 0.00 0.00 0.00 1026.6
20260502001729 8 0.0 0.0 0.00 0.00 0.00 1026.6
20260502000728 8 0.0 0.0 0.00 0.00 0.00 1026.6
20260501235728 8 0.0 0.0 0.00 0.00 0.00 1026.7
20260501234728 8 0.0 0.0 0.00 0.00 0.00 1026.5
20260501233727 10 0.0 0.0 0.00 0.00 0.00 1026.6
20260501232727 10 0.0 0.0 0.00 0.00 0.00 1026.6
20260501231726 10 0.0 0.0 0.00 0.00 0.00 1026.6
20260501230726 9 0.0 0.0 0.00 0.00 0.00 1026.6
20260501225725 10 0.0 0.0 0.00 0.00 0.00 1026.5
20260501224725 10 0.0 0.0 0.00 0.00 0.00 1026.5
20260501223724 11 0.0 0.0 0.00 0.00 0.00 1026.6
20260501222724 11 0.0 0.0 0.00 0.00 0.00 1026.4
20260501221723 12 0.0 0.0 0.00 0.00 0.00 1026.6
20260501220723 11 0.0 0.0 0.00 0.00 0.00 1026.5
20260501215722 12 0.0 0.0 0.00 0.00 0.00 1026.4
20260501214722 12 0.0 0.0 0.00 0.00 0.00 1026.4
20260501213721 12 0.0 0.0 0.00 0.00 0.00 1026.4
20260501212721 12 0.0 0.0 0.00 0.00 0.00 1026.3
20260501211720 13 0.0 0.0 0.00 0.00 0.00 1026.4
20260501210720 13 0.0 0.0 0.00 0.00 0.00 1026.4
20260501205719 14 0.0 0.0 0.00 0.00 0.00 1026.5
20260501204719 14 0.0 0.0 0.00 0.00 0.00 1026.6
20260501203718 14 0.0 0.0 0.00 0.00 0.00 1026.5
20260501202718 15 0.0 0.0 0.00 0.00 0.00 1026.5
20260501201717 17 0.0 0.0 0.00 0.00 0.00 1026.4
20260501200716 16 0.0 0.0 0.00 0.00 0.00 1026.4
20260501195716 16 0.0 0.0 0.00 0.00 0.00 1026.2
20260501194715 17 0.0 0.0 0.00 0.00 0.00 1026.2
20260501193715 17 0.0 0.0 0.00 0.00 0.00 1026.1
20260501192714 17 0.0 0.0 0.00 0.00 0.00 1026.0
20260501191714 18 0.0 0.0 0.00 0.00 0.00 1025.9
20260501190713 18 0.0 0.0 0.00 0.00 0.00 1025.8
20260501185713 18 0.0 0.0 0.00 0.00 0.00 1025.8
20260501184712 20 0.0 0.0 0.00 0.00 0.00 1025.7
20260501183712 20 0.0 0.0 0.00 0.00 0.00 1025.6
20260501182711 21 0.0 0.0 0.00 0.00 0.00 1025.5
20260501181711 22 0.0 0.0 0.00 0.00 0.00 1025.4
20260501180710 22 0.0 0.0 0.00 0.00 0.00 1025.4
20260501175709 23 0.0 0.0 0.00 0.00 0.00 1025.4
20260501174709 23 0.0 0.0 0.00 0.00 0.00 1025.3
20260501173708 23 0.0 0.0 0.00 0.00 0.00 1025.3
20260501172708 23 0.0 0.0 0.00 0.00 0.00 1025.2
20260501171707 25 0.0 0.0 0.00 0.00 0.00 1025.2
20260501170706 25 0.0 0.0 0.00 0.00 0.00 1025.1
20260501165706 25 0.0 0.0 0.00 0.00 0.00 1025.1
20260501164705 24 0.0 0.0 0.00 0.00 0.00 1025.2
20260501163705 25 0.0 0.0 0.00 0.00 0.00 1025.2
20260501162704 25 0.0 0.0 0.00 0.00 0.00 1025.3
20260501161703 24 0.0 0.0 0.00 0.00 0.00 1025.3
20260501160703 24 0.0 0.0 0.00 0.00 0.00 1025.4
20260501155702 24 0.0 0.0 0.00 0.00 0.00 1025.4
20260501154702 26 0.0 0.0 0.00 0.00 0.00 1025.5
20260501153701 26 0.0 0.0 0.00 0.00 0.00 1025.5
20260501152701 27 0.0 0.0 0.00 0.00 0.00 1025.6
20260501151700 27 0.0 0.0 0.00 0.00 0.00 1025.7
20260501150700 28 0.0 0.0 0.00 0.00 0.00 1025.7
20260501145659 28 0.0 0.0 0.00 0.00 0.00 1025.7
20260501144659 28 0.0 0.0 0.00 0.00 0.00 1025.8
20260501143659 28 0.0 0.0 0.00 0.00 0.00 1025.8
20260501142658 30 0.0 0.0 0.00 0.00 0.00 1025.8
20260501141658 30 0.0 0.0 0.00 0.00 0.00 1025.9
20260501140658 30 0.0 0.0 0.00 0.00 0.00 1025.9
20260501135657 30 0.0 0.0 0.00 0.00 0.00 1026.1
20260501134657 31 0.0 0.0 0.00 0.00 0.00 1026.1
20260501133657 32 0.0 0.0 0.00 0.00 0.00 1026.2